Douglas, AZ

4:26 AM MST on February 22, 2017 (GMT -0700)
Bisbee Douglas International

Weather History for KDUG - July, 2013

Change the Weather History Date:

Sunday, July 14, 2013

  Actual Average Record
Temperature  
Mean Temperature 82 °F 80 °F  
Max Temperature 95 °F 95 °F 106 °F (2003)
Min Temperature 69 °F 66 °F 55 °F (1992)
Degree Days  
Heating Degree Days 0 0  
Month to date heating degree days 0 0  
Since 1 June heating degree days 0 0  
Since 1 July heating degree days 0 0  
Cooling Degree Days 17 15  
Month to date cooling degree days 225 222  
Year to date cooling degree days 934 818  
Since 1 June cooling degree days 734 617  
Growing Degree Days 31 (Base 50)    
Moisture  
Dew Point 62 °F    
Average Humidity 58    
Maximum Humidity 90    
Minimum Humidity 26    
Precipitation  
Precipitation 0.00 in 0.10 in 1.65 in (1999)
Month to date precipitation 6.97 1.04  
Year to date precipitation 7.95 4.05  
Snow  
Snow 0.00 in - - ()
Month to date snowfall 0.0  
Snow Depth 0.00 in    
Sea Level Pressure  
Sea Level Pressure 29.83 in    
Wind  
Wind Speed 5 mph (NW)    
Max Wind Speed 20 mph    
Max Gust Speed 24 mph    
Visibility 10 miles    
Events      
T = Trace of Precipitation, MM = Missing Value Source: NWS Daily Summary

Daily Weather History Graph

Daily Weather History Graph

Search for Another Location

Airport or City:

Trip Planner

Search our weather history database for the weather conditions in past years. The results will help you decide how hot, cold, wet, or windy it might be!

Date:

Astronomy

Jul. 14, 2013 Rise Set
Actual Time 5:23 AM MST 7:24 PM MST
Civil Twilight 4:56 AM MST 7:51 PM MST
Nautical Twilight 4:23 AM MST 8:25 PM MST
Astronomical Twilight 3:47 AM MST 9:00 PM MST
Moon 11:16 AM MST (7/14) 11:07 PM MST (7/14)
Length of Visible Light 14h 55m
Length of Day
14h 00m
Waxing Crescent, 36% of the Moon is Illuminated
Jul 14
Waxing Crescent
Jul 15
First Quarter
Jul 22
Full
Jul 29
Last Quarter
Aug 6
New

Hourly Weather History & Observations

Time (MST) Temp. Heat Index Dew Point Humidity Pressure Visibility Wind Dir Wind Speed Gust Speed Precip Events Conditions
12:56 AM 72.0 °F - 66.0 °F 81% 29.88 in 10.0 mi South 5.8 mph - N/A   Partly Cloudy
1:56 AM 70.0 °F - 66.9 °F 90% 29.88 in 10.0 mi SE 6.9 mph - N/A   Clear
2:56 AM 70.0 °F - 66.0 °F 87% 29.90 in 10.0 mi ESE 10.4 mph - N/A   Scattered Clouds
3:56 AM 71.1 °F - 64.9 °F 81% 29.90 in 10.0 mi Calm Calm - N/A   Mostly Cloudy
4:56 AM 71.1 °F - 66.0 °F 84% 29.86 in 10.0 mi North 6.9 mph - N/A   Clear
5:56 AM 69.1 °F - 66.0 °F 90% 29.91 in 10.0 mi West 4.6 mph - N/A   Clear
6:56 AM 71.1 °F - 66.9 °F 87% 29.92 in 10.0 mi NNE 8.1 mph - N/A   Clear
7:56 AM 75.0 °F - 66.0 °F 73% 29.91 in 10.0 mi Calm Calm - N/A   Clear
8:56 AM 79.0 °F - 64.9 °F 62% 29.89 in 10.0 mi Calm Calm - N/A   Clear
9:56 AM 80.1 °F 82.1 °F 66.0 °F 62% 29.89 in 10.0 mi Calm Calm - N/A   Clear
10:56 AM 84.0 °F 84.5 °F 62.1 °F 47% 29.87 in 10.0 mi Calm Calm - N/A   Clear
11:56 AM 88.0 °F 87.9 °F 61.0 °F 40% 29.86 in 10.0 mi NNW 6.9 mph - N/A   Clear
12:56 PM 89.1 °F 87.7 °F 57.0 °F 34% 29.83 in 10.0 mi SW 5.8 mph - N/A   Clear
1:56 PM 91.0 °F 88.9 °F 55.0 °F 29% 29.80 in 10.0 mi Calm Calm - N/A   Clear
2:56 PM 91.9 °F - 51.1 °F 25% 29.77 in 10.0 mi West 6.9 mph - N/A   Clear
3:56 PM 91.9 °F 89.5 °F 53.1 °F 27% 29.74 in 10.0 mi West 3.5 mph - N/A   Clear
4:56 PM 91.9 °F 90.3 °F 55.9 °F 30% 29.72 in 10.0 mi Calm Calm - N/A   Clear
5:56 PM 93.0 °F 92.0 °F 57.9 °F 31% 29.73 in 10.0 mi WNW 13.8 mph 18.4 mph N/A   Clear
6:56 PM 87.1 °F 86.5 °F 59.0 °F 39% 29.75 in 10.0 mi NW 15.0 mph 23.0 mph N/A   Clear
7:56 PM 82.9 °F 83.3 °F 61.0 °F 47% 29.77 in 10.0 mi WNW 8.1 mph - N/A   Clear
8:56 PM 82.0 °F 83.1 °F 63.0 °F 52% 29.78 in 10.0 mi Calm Calm - N/A   Partly Cloudy
9:56 PM 81.0 °F 82.2 °F 63.0 °F 54% 29.79 in 10.0 mi NNE 5.8 mph - N/A   Mostly Cloudy
10:56 PM 81.0 °F 81.9 °F 62.1 °F 52% 29.78 in 10.0 mi NNW 11.5 mph - N/A   Clear
11:56 PM 78.1 °F - 63.0 °F 60% 29.77 in 10.0 mi NNW 9.2 mph - N/A   Clear